When you browse on this site, cookies collect data to enhance your experience and personalize the content and advertising you see.
Visit our Privacy Policy to learn more. By continuing to use the site, you agree to this use of cookies and data.
  • In Austria
  • List of Countries
  • For 7 days
  • Water Temperature
  • Weather Map
  • News
  • Weather Widgets
  • user-avatar
    Login

    Hourly Weather Mirolyubovka

    Today, 29 May, Friday

    Time Temperature Precipitation Wind Pressure Humidity
    00:00 +14°C° 0 mm 5 mps 750 mmHg 85%
    01:00 +13°C° 0 mm 4 mps 750 mmHg 88%
    02:00 +13°C° 0 mm 5 mps 750 mmHg 87%
    03:00 +13°C° 0 mm 5 mps 750 mmHg 87%
    04:00 +12°C° 0 mm 5 mps 750 mmHg 87%
    05:00 +13°C° 0 mm 6 mps 750 mmHg 82%
    06:00 +14°C° 0 mm 7 mps 750 mmHg 78%
    07:00 +15°C° 0 mm 7 mps 750 mmHg 74%
    08:00 +17°C° 0 mm 7 mps 750 mmHg 68%
    09:00 +18°C° 0 mm 7 mps 750 mmHg 63%
    10:00 +21°C° 0 mm 7 mps 750 mmHg 57%
    11:00 +22°C° 0 mm 7 mps 750 mmHg 55%
    12:00 +23°C° 0 mm 7 mps 750 mmHg 52%
    13:00 +24°C° 0 mm 7 mps 750 mmHg 49%
    14:00 +24°C° 0 mm 7 mps 750 mmHg 49%
    15:00 +24°C° 0 mm 7 mps 749 mmHg 50%
    16:00 +26°C° 0 mm 6 mps 749 mmHg 50%
    17:00 +24°C° 0 mm 6 mps 749 mmHg 55%
    18:00 +23°C° 0 mm 5 mps 749 mmHg 60%
    19:00 +22°C° 0 mm 4 mps 749 mmHg 65%
    20:00 +20°C° 0 mm 4 mps 749 mmHg 69%
    21:00 +19°C° 0 mm 4 mps 749 mmHg 73%
    22:00 +17°C° 0 mm 4 mps 749 mmHg 77%
    23:00 +17°C° 0 mm 4 mps 748 mmHg 78%

    Tomorrow, 30 May, Saturday

    Time Temperature Precipitation Wind Pressure Humidity
    00:00 +15°C° 0 mm 4 mps 748 mmHg 80%
    01:00 +15°C° 0 mm 4 mps 748 mmHg 81%
    02:00 +14°C° 0 mm 4 mps 748 mmHg 81%
    03:00 +14°C° 0 mm 4 mps 748 mmHg 81%
    04:00 +14°C° 0 mm 4 mps 748 mmHg 81%
    05:00 +15°C° 0 mm 4 mps 747 mmHg 77%
    06:00 +16°C° 0 mm 5 mps 747 mmHg 72%
    07:00 +17°C° 0 mm 5 mps 747 mmHg 68%
    08:00 +20°C° 0 mm 5 mps 747 mmHg 65%
    09:00 +21°C° 0 mm 5 mps 747 mmHg 61%
    10:00 +23°C° 0 mm 5 mps 747 mmHg 58%
    11:00 +25°C° 0 mm 5 mps 746 mmHg 56%
    12:00 +26°C° 0 mm 5 mps 746 mmHg 55%
    13:00 +28°C° 0 mm 5 mps 746 mmHg 53%
    14:00 +28°C° 0 mm 5 mps 746 mmHg 53%
    15:00 +29°C° 0 mm 5 mps 745 mmHg 53%
    16:00 +29°C° 0 mm 5 mps 745 mmHg 52%
    17:00 +28°C° 0 mm 4 mps 745 mmHg 57%
    18:00 +27°C° 0 mm 3 mps 744 mmHg 63%
    19:00 +26°C° 0 mm 3 mps 744 mmHg 68%
    20:00 +25°C° 0 mm 3 mps 744 mmHg 70%
    21:00 +24°C° 0 mm 3 mps 743 mmHg 73%
    22:00 +22°C° 0 mm 3 mps 743 mmHg 75%
    23:00 +21°C° 0 mm 3 mps 742 mmHg 75%

    Day after tomorrow, 31 May, Sunday

    Time Temperature Precipitation Wind Pressure Humidity
    00:00 +21°C° 0 mm 3 mps 741 mmHg 74%
    01:00 +21°C° 0 mm 3 mps 741 mmHg 74%
    02:00 +20°C° 0 mm 3 mps 740 mmHg 76%
    03:00 +20°C° 0 mm 3 mps 740 mmHg 79%
    04:00 +19°C° 0 mm 3 mps 740 mmHg 81%
    05:00 +20°C° 0 mm 3 mps 740 mmHg 78%
    06:00 +21°C° 0 mm 3 mps 739 mmHg 76%
    07:00 +23°C° 0 mm 2 mps 739 mmHg 73%
    08:00 +23°C° 0 mm 4 mps 739 mmHg 73%
    09:00 +23°C° 0 mm 6 mps 739 mmHg 74%
    10:00 +24°C° 0 mm 7 mps 739 mmHg 75%
    11:00 +24°C° 0 mm 8 mps 739 mmHg 74%
    12:00 +23°C° 0 mm 8 mps 739 mmHg 73%
    13:00 +23°C° 0 mm 8 mps 739 mmHg 72%
    14:00 +23°C° 0 mm 8 mps 739 mmHg 69%
    15:00 +24°C° 0 mm 8 mps 740 mmHg 65%
    16:00 +24°C° 0 mm 8 mps 740 mmHg 61%
    17:00 +23°C° 0 mm 8 mps 740 mmHg 63%
    18:00 +22°C° 0 mm 7 mps 740 mmHg 65%
    19:00 +21°C° 0 mm 6 mps 740 mmHg 67%
    20:00 +21°C° 0 mm 6 mps 740 mmHg 68%
    21:00 +20°C° 0 mm 7 mps 740 mmHg 69%
    22:00 +18°C° 0 mm 7 mps 740 mmHg 70%
    23:00 +17°C° 0 mm 7 mps 740 mmHg 72%

    1 June, Monday

    Time Temperature Precipitation Wind Pressure Humidity
    00:00 +17°C° 0 mm 6 mps 741 mmHg 73%
    01:00 +16°C° 0 mm 6 mps 741 mmHg 74%
    02:00 +15°C° 0 mm 6 mps 740 mmHg 77%
    03:00 +15°C° 0 mm 6 mps 740 mmHg 80%
    04:00 +14°C° 0 mm 5 mps 740 mmHg 83%
    05:00 +15°C° 0 mm 6 mps 740 mmHg 80%
    06:00 +15°C° 0 mm 7 mps 740 mmHg 78%
    07:00 +16°C° 0 mm 7 mps 740 mmHg 75%
    08:00 +17°C° 0.1 mm 8 mps 740 mmHg 71%
    09:00 +17°C° 0.1 mm 9 mps 740 mmHg 67%
    10:00 +18°C° 0.1 mm 10 mps 740 mmHg 63%
    11:00 +18°C° 0.2 mm 10 mps 740 mmHg 64%
    12:00 +18°C° 0.2 mm 9 mps 740 mmHg 65%
    13:00 +17°C° 0.2 mm 9 mps 741 mmHg 65%
    14:00 +17°C° 0 mm 8 mps 741 mmHg 65%
    15:00 +16°C° 0 mm 7 mps 741 mmHg 64%
    16:00 +16°C° 0 mm 6 mps 741 mmHg 63%
    17:00 +15°C° 0 mm 6 mps 742 mmHg 64%
    18:00 +15°C° 0 mm 5 mps 742 mmHg 65%
    19:00 +15°C° 0 mm 5 mps 742 mmHg 66%
    20:00 +13°C° 0 mm 4 mps 742 mmHg 72%
    21:00 +12°C° 0 mm 3 mps 743 mmHg 79%
    22:00 +11°C° 0 mm 3 mps 743 mmHg 85%
    23:00 +10°C° 0 mm 2 mps 743 mmHg 87%

    2 June, Tuesday

    Time Temperature Precipitation Wind Pressure Humidity
    00:00 +10°C° 0 mm 1 mps 743 mmHg 88%
    01:00 +9°C° 0 mm 1 mps 743 mmHg 90%
    02:00 +9°C° 0 mm 1 mps 743 mmHg 90%
    03:00 +8°C° 0 mm 1 mps 743 mmHg 91%
    04:00 +8°C° 0 mm 1 mps 743 mmHg 91%
    05:00 +9°C° 0 mm 1 mps 743 mmHg 85%
    06:00 +9°C° 0 mm 2 mps 743 mmHg 79%
    07:00 +12°C° 0 mm 2 mps 743 mmHg 73%
    08:00 +13°C° 0 mm 2 mps 743 mmHg 68%
    09:00 +14°C° 0 mm 2 mps 744 mmHg 62%
    10:00 +15°C° 0 mm 2 mps 744 mmHg 57%
    11:00 +16°C° 0.1 mm 2 mps 743 mmHg 54%
    12:00 +17°C° 0.1 mm 2 mps 743 mmHg 52%
    13:00 +17°C° 0.1 mm 2 mps 743 mmHg 50%
    14:00 +17°C° 0 mm 2 mps 743 mmHg 49%
    15:00 +18°C° 0 mm 2 mps 743 mmHg 47%
    16:00 +18°C° 0 mm 2 mps 742 mmHg 45%
    17:00 +18°C° 0 mm 2 mps 742 mmHg 48%
    18:00 +17°C° 0 mm 2 mps 742 mmHg 51%
    19:00 +18°C° 0 mm 1 mps 742 mmHg 54%
    20:00 +15°C° 0 mm 2 mps 742 mmHg 58%
    21:00 +14°C° 0 mm 2 mps 742 mmHg 62%
    22:00 +12°C° 0 mm 2 mps 742 mmHg 66%
    23:00 +10°C° 0 mm 2 mps 742 mmHg 68%

    3 June, Wednesday

    Time Temperature Precipitation Wind Pressure Humidity
    00:00 +11°C° 0 mm 1 mps 742 mmHg 69%
    01:00 +9°C° 0 mm 0 mps 742 mmHg 70%
    02:00 +9°C° 0 mm 0 mps 742 mmHg 71%
    03:00 +9°C° 0 mm 0 mps 742 mmHg 72%
    04:00 +8°C° 0 mm 0 mps 742 mmHg 72%
    05:00 +10°C° 0 mm 0 mps 742 mmHg 69%
    06:00 +11°C° 0 mm 0 mps 742 mmHg 65%
    07:00 +14°C° 0 mm 1 mps 742 mmHg 61%
    08:00 +15°C° 0 mm 1 mps 741 mmHg 56%
    09:00 +18°C° 0 mm 1 mps 741 mmHg 52%
    10:00 +19°C° 0 mm 1 mps 741 mmHg 47%
    11:00 +19°C° 0 mm 1 mps 741 mmHg 45%
    12:00 +20°C° 0 mm 1 mps 741 mmHg 44%
    13:00 +20°C° 0 mm 1 mps 741 mmHg 42%
    14:00 +19°C° 0.1 mm 2 mps 741 mmHg 43%
    15:00 +19°C° 0.1 mm 2 mps 741 mmHg 45%
    16:00 +19°C° 0.1 mm 3 mps 741 mmHg 46%
    17:00 +18°C° 0.2 mm 3 mps 741 mmHg 53%
    18:00 +17°C° 0.2 mm 2 mps 741 mmHg 59%
    19:00 +16°C° 0.2 mm 2 mps 741 mmHg 66%
    20:00 +15°C° 0.1 mm 2 mps 741 mmHg 71%
    21:00 +14°C° 0.1 mm 2 mps 741 mmHg 76%
    22:00 +12°C° 0.1 mm 2 mps 741 mmHg 81%
    23:00 +12°C° 0.1 mm 2 mps 741 mmHg 83%
    Show more